QPF
0.00 0.00 0.00 0.00 0.00 0.00 0.00 0.00 0.01 0.01 0.01 0.01 0.01 0.01 0.01 0.01 0.01 0.00 0.01 0.01 0.01 0.01 0.01 0.01 0.01 0.01 0.01 0.01 0.01 0.01 0.01 0.00 0.01 0.01 0.02 0.04 0.04 0.02 0.01 0.01 0.03 0.03 0.05
0.00 0.00 0.00 0.00 0.00 0.00 0.00 0.00 0.01 0.01 0.00 0.00 0.00 0.01 0.01 0.01 0.01 0.01 0.01 0.01 0.00 0.00 0.01 0.01 0.01 0.01 0.01 0.01 0.01 0.02 0.01 0.01 0.01 0.01 0.03 0.05 0.04 0.03 0.02 0.03 0.05 0.04 0.04
0.00 0.00 0.00 0.00 0.00 0.00 0.00 0.00 0.00 0.00 0.01 0.01 0.01 0.01 0.01 0.01 0.01 0.01 0.01 0.01 0.01 0.01 0.01 0.00 0.01 0.01 0.01 0.01 0.02 0.02 0.02 0.02 0.01 0.02 0.04 0.06 0.03 0.03 0.03 0.05 0.05 0.03 0.01
0.00 0.00 0.00 0.00 0.00 0.00 0.01 0.01 0.01 0.01 0.01 0.02 0.01 0.01 0.01 0.01 0.01 0.00 0.01 0.01 0.01 0.01 0.01 0.00 0.00 0.01 0.01 0.01 0.01 0.02 0.02 0.02 0.02 0.03 0.05 0.04 0.02 0.02 0.04 0.06 0.04 0.02 0.01
0.01 0.00 0.00 0.00 0.00 0.01 0.01 0.01 0.01 0.01 0.01 0.01 0.00 0.01 0.01 0.01 0.01 0.00 0.01 0.01 0.01 0.01 0.00 0.00 0.01 0.01 0.01 0.01 0.01 0.01 0.01 0.02 0.02 0.05 0.05 0.02 0.02 0.02 0.03 0.05 0.04 0.03 0.02
0.01 0.01 0.00 0.00 0.00 0.01 0.01 0.01 0.01 0.01 0.00 0.00 0.00 0.01 0.01 0.01 0.01 0.00 0.00 0.01 0.01 0.01 0.00 0.01 0.01 0.01 0.01 0.01 0.01 0.02 0.02 0.03 0.04 0.05 0.04 0.02 0.02 0.02 0.03 0.05 0.03 0.04 0.04
0.00 0.00 0.00 0.01 0.01 0.01 0.00 0.01 0.01 0.00 0.00 0.00 0.01 0.02 0.02 0.02 0.02 0.01 0.01 0.01 0.02 0.01 0.01 0.01 0.01 0.01 0.01 0.01 0.01 0.02 0.02 0.02 0.04 0.04 0.03 0.02 0.03 0.02 0.03 0.05 0.04 0.03 0.03
0.00 0.00 0.00 0.01 0.01 0.01 0.00 0.01 0.01 0.01 0.00 0.00 0.01 0.02 0.02 0.02 0.02 0.02 0.01 0.02 0.01 0.01 0.01 0.01 0.01 0.01 0.01 0.01 0.02 0.02 0.02 0.02 0.03 0.03 0.02 0.02 0.03 0.02 0.03 0.05 0.04 0.03 0.03
0.00 0.00 0.00 0.00 0.00 0.00 0.00 0.00 0.01 0.01 0.00 0.00 0.01 0.03 0.02 0.02 0.03 0.02 0.01 0.01 0.00 0.01 0.01 0.01 0.01 0.01 0.01 0.02 0.01 0.02 0.02 0.02 0.02 0.02 0.02 0.02 0.02 0.02 0.03 0.06 0.06 0.04 0.03
0.00 0.00 0.00 0.00 0.00 0.00 0.01 0.01 0.01 0.01 0.01 0.01 0.02 0.04 0.03 0.02 0.03 0.03 0.01 0.01 0.01 0.01 0.02 0.01 0.01 0.01 0.01 0.01 0.01 0.01 0.01 0.01 0.01 0.01 0.01 0.02 0.01 0.01 0.03 0.05 0.06 0.06 0.04
0.00 0.00 0.00 0.01 0.00 0.00 0.00 0.00 0.01 0.01 0.01 0.01 0.02 0.03 0.03 0.03 0.03 0.03 0.02 0.01 0.01 0.01 0.01 0.01 0.01 0.02 0.01 0.00 0.00 0.00 0.00 0.00 0.01 0.01 0.02 0.01 0.01 0.01 0.02 0.03 0.03 0.04 0.05
0.00 0.00 0.00 0.00 0.01 0.00 0.00 0.00 0.00 0.00 0.00 0.00 0.01 0.02 0.02 0.02 0.02 0.03 0.02 0.01 0.01 0.01 0.00 0.00 0.01 0.01 0.00 0.00 0.01 0.00 0.00 0.00 0.01 0.01 0.01 0.01 0.01 0.02 0.02 0.02 0.03 0.03 0.03
0.00 0.00 0.00 0.00 0.00 0.00 0.00 0.00 0.00 0.00 0.00 0.00 0.01 0.02 0.01 0.02 0.02 0.02 0.02 0.01 0.01 0.01 0.00 0.00 0.01 0.01 0.00 0.00 0.00 0.00 0.00 0.00 0.01 0.01 0.02 0.01 0.01 0.01 0.01 0.01 0.02 0.02 0.02
0.01 0.01 0.00 0.00 0.00 0.00 0.00 0.00 0.00 0.01 0.01 0.00 0.00 0.01 0.01 0.02 0.02 0.02 0.02 0.02 0.01 0.01 0.00 0.00 0.00 0.01 0.01 0.00 0.00 0.00 0.01 0.01 0.01 0.01 0.01 0.01 0.01 0.01 0.01 0.01 0.02 0.02 0.01
0.01 0.01 0.01 0.01 0.01 0.00 0.00 0.00 0.00 0.01 0.01 0.01 0.00 0.00 0.01 0.02 0.02 0.01 0.02 0.02 0.01 0.01 0.01 0.01 0.00 0.01 0.02 0.01 0.00 0.01 0.01 0.01 0.00 0.00 0.00 0.00 0.00 0.00 0.00 0.00 0.01 0.02 0.02
0.00 0.00 0.01 0.00 0.01 0.01 0.00 0.00 0.00 0.01 0.01 0.01 0.01 0.01 0.01 0.02 0.02 0.01 0.01 0.01 0.01 0.01 0.01 0.01 0.00 0.00 0.01 0.02 0.01 0.01 0.01 0.01 0.00 0.00 0.00 0.00 0.00 0.00 0.00 0.00 0.01 0.01 0.01
0.01 0.00 0.00 0.00 0.01 0.01 0.01 0.00 0.00 0.01 0.01 0.01 0.01 0.01 0.01 0.01 0.01 0.01 0.02 0.02 0.01 0.01 0.01 0.01 0.01 0.01 0.01 0.01 0.01 0.01 0.00 0.01 0.01 0.00 0.00 0.00 0.00 0.00 0.00 0.01 0.01 0.01 0.01
0.01 0.01 0.01 0.01 0.01 0.01 0.01 0.01 0.01 0.00 0.01 0.01 0.00 0.01 0.01 0.01 0.01 0.01 0.02 0.03 0.03 0.02 0.01 0.02 0.02 0.02 0.01 0.01 0.00 0.00 0.00 0.01 0.01 0.00 0.00 0.00 0.01 0.01 0.01 0.02 0.01 0.01 0.01
0.01 0.01 0.00 0.01 0.00 0.00 0.00 0.01 0.01 0.01 0.01 0.01 0.01 0.01 0.01 0.01 0.01 0.01 0.01 0.04 0.02 0.02 0.02 0.02 0.02 0.03 0.03 0.02 0.01 0.01 0.00 0.01 0.01 0.00 0.01 0.01 0.01 0.01 0.01 0.01 0.01 0.01 0.01
0.01 0.01 0.00 0.00 0.00 0.00 0.00 0.00 0.01 0.01 0.02 0.02 0.02 0.02 0.02 0.02 0.02 0.02 0.02 0.03 0.02 0.02 0.02 0.03 0.02 0.03 0.03 0.03 0.02 0.01 0.00 0.01 0.01 0.01 0.01 0.01 0.02 0.02 0.01 0.01 0.01 0.01 0.01
0.00 0.00 0.00 0.00 0.00 0.00 0.00 0.00 0.01 0.01 0.01 0.01 0.02 0.02 0.03 0.02 0.02 0.02 0.02 0.02 0.03 0.02 0.01 0.02 0.01 0.02 0.02 0.03 0.03 0.02 0.01 0.01 0.01 0.01 0.01 0.02 0.02 0.01 0.01 0.01 0.01 0.01 0.01
0.00 0.00 0.00 0.00 0.01 0.01 0.01 0.01 0.01 0.01 0.01 0.01 0.01 0.02 0.03 0.03 0.02 0.02 0.02 0.01 0.02 0.02 0.01 0.02 0.02 0.02 0.04 0.04 0.03 0.02 0.01 0.01 0.01 0.01 0.01 0.02 0.02 0.02 0.01 0.01 0.01 0.01 0.01
0.00 0.00 0.00 0.00 0.01 0.01 0.01 0.01 0.01 0.01 0.01 0.01 0.02 0.02 0.02 0.02 0.02 0.02 0.02 0.01 0.01 0.01 0.01 0.01 0.02 0.03 0.04 0.04 0.04 0.03 0.02 0.01 0.01 0.01 0.01 0.01 0.01 0.01 0.01 0.02 0.02 0.01 0.01
0.00 0.00 0.00 0.00 0.00 0.01 0.01 0.01 0.01 0.01 0.01 0.01 0.01 0.01 0.01 0.01 0.01 0.01 0.01 0.01 0.01 0.01 0.01 0.02 0.02 0.02 0.02 0.02 0.03 0.03 0.03 0.03 0.02 0.01 0.01 0.01 0.01 0.01 0.01 0.01 0.01 0.01 0.01
0.00 0.00 0.00 0.00 0.01 0.01 0.01 0.01 0.01 0.00 0.00 0.00 0.00 0.01 0.01 0.00 0.00 0.00 0.01 0.01 0.01 0.01 0.01 0.02 0.02 0.02 0.02 0.03 0.03 0.03 0.03 0.04 0.04 0.02 0.01 0.01 0.01 0.00 0.00 0.01 0.01 0.01 0.02
0.01 0.00 0.00 0.01 0.01 0.01 0.01 0.01 0.01 0.00 0.00 0.00 0.00 0.00 0.00 0.00 0.00 0.00 0.00 0.01 0.01 0.01 0.01 0.01 0.01 0.02 0.02 0.02 0.02 0.02 0.03 0.04 0.05 0.05 0.03 0.02 0.01 0.01 0.01 0.01 0.01 0.02 0.02
MSLP
1020.23 1020.43 1020.56 1020.61 1020.57 1020.49 1020.40 1020.34 1020.37 1020.48 1020.67 1020.93 1021.20 1021.46 1021.66 1021.79 1021.85 1021.85 1021.81 1021.79 1021.80 1021.86 1021.99 1022.19 1022.42 1022.68 1022.93 1023.17 1023.38 1023.55 1023.69 1023.81 1023.91 1024.01 1024.09 1024.17 1024.25 1024.31 1024.38 1024.44 1024.51 1024.60 1024.71
1020.12 1020.43 1020.66 1020.76 1020.76 1020.67 1020.56 1020.47 1020.47 1020.56 1020.76 1021.04 1021.36 1021.67 1021.93 1022.11 1022.20 1022.21 1022.18 1022.14 1022.13 1022.18 1022.28 1022.45 1022.66 1022.89 1023.11 1023.31 1023.47 1023.60 1023.70 1023.79 1023.87 1023.96 1024.05 1024.14 1024.22 1024.30 1024.36 1024.42 1024.49 1024.57 1024.69
1019.83 1020.27 1020.60 1020.78 1020.83 1020.76 1020.64 1020.54 1020.52 1020.61 1020.81 1021.12 1021.48 1021.84 1022.15 1022.37 1022.50 1022.54 1022.52 1022.48 1022.46 1022.49 1022.58 1022.72 1022.90 1023.10 1023.28 1023.44 1023.55 1023.63 1023.70 1023.75 1023.81 1023.89 1023.98 1024.08 1024.18 1024.27 1024.34 1024.40 1024.46 1024.53 1024.63
1019.34 1019.91 1020.36 1020.64 1020.75 1020.73 1020.64 1020.54 1020.52 1020.61 1020.83 1021.16 1021.55 1021.95 1022.31 1022.58 1022.74 1022.80 1022.80 1022.77 1022.75 1022.78 1022.85 1022.98 1023.14 1023.30 1023.45 1023.56 1023.64 1023.68 1023.70 1023.73 1023.78 1023.85 1023.95 1024.07 1024.18 1024.28 1024.35 1024.41 1024.45 1024.50 1024.58
1018.70 1019.38 1019.95 1020.34 1020.55 1020.59 1020.54 1020.48 1020.48 1020.58 1020.82 1021.18 1021.60 1022.03 1022.42 1022.72 1022.91 1023.00 1023.02 1023.00 1022.99 1023.02 1023.09 1023.21 1023.35 1023.50 1023.62 1023.70 1023.74 1023.75 1023.75 1023.76 1023.80 1023.88 1023.99 1024.12 1024.25 1024.36 1024.43 1024.47 1024.49 1024.51 1024.56
1017.96 1018.75 1019.44 1019.94 1020.24 1020.37 1020.39 1020.37 1020.41 1020.55 1020.81 1021.18 1021.61 1022.06 1022.47 1022.79 1023.00 1023.11 1023.15 1023.16 1023.16 1023.20 1023.28 1023.40 1023.54 1023.67 1023.77 1023.84 1023.86 1023.85 1023.84 1023.85 1023.89 1023.98 1024.10 1024.25 1024.39 1024.50 1024.57 1024.59 1024.57 1024.55 1024.55
1017.21 1018.10 1018.88 1019.48 1019.88 1020.10 1020.20 1020.25 1020.34 1020.51 1020.79 1021.17 1021.61 1022.06 1022.47 1022.79 1023.01 1023.14 1023.19 1023.22 1023.24 1023.30 1023.39 1023.53 1023.67 1023.81 1023.91 1023.97 1023.99 1023.98 1023.97 1023.98 1024.03 1024.13 1024.26 1024.42 1024.57 1024.68 1024.74 1024.73 1024.69 1024.62 1024.56
1016.54 1017.49 1018.35 1019.04 1019.52 1019.83 1020.01 1020.13 1020.26 1020.46 1020.76 1021.14 1021.58 1022.02 1022.42 1022.73 1022.95 1023.08 1023.15 1023.19 1023.24 1023.32 1023.45 1023.60 1023.76 1023.91 1024.02 1024.09 1024.11 1024.11 1024.10 1024.12 1024.18 1024.29 1024.44 1024.60 1024.75 1024.86 1024.91 1024.89 1024.81 1024.70 1024.59
1015.99 1016.98 1017.89 1018.63 1019.18 1019.56 1019.81 1019.99 1020.18 1020.42 1020.73 1021.10 1021.52 1021.94 1022.31 1022.61 1022.82 1022.95 1023.04 1023.10 1023.18 1023.30 1023.45 1023.63 1023.82 1023.99 1024.12 1024.19 1024.22 1024.23 1024.23 1024.25 1024.32 1024.43 1024.59 1024.76 1024.91 1025.02 1025.05 1025.02 1024.91 1024.77 1024.63
1015.56 1016.56 1017.48 1018.26 1018.86 1019.29 1019.60 1019.84 1020.07 1020.34 1020.66 1021.03 1021.43 1021.82 1022.17 1022.45 1022.65 1022.79 1022.90 1022.99 1023.10 1023.26 1023.44 1023.66 1023.87 1024.06 1024.20 1024.29 1024.33 1024.33 1024.34 1024.36 1024.43 1024.54 1024.69 1024.86 1025.01 1025.11 1025.15 1025.11 1025.00 1024.85 1024.68
1015.20 1016.18 1017.09 1017.87 1018.50 1018.97 1019.33 1019.62 1019.90 1020.20 1020.54 1020.92 1021.31 1021.68 1022.01 1022.28 1022.48 1022.64 1022.76 1022.89 1023.05 1023.24 1023.46 1023.70 1023.94 1024.14 1024.30 1024.39 1024.42 1024.43 1024.42 1024.44 1024.50 1024.60 1024.74 1024.90 1025.05 1025.15 1025.19 1025.16 1025.06 1024.91 1024.75
1014.83 1015.77 1016.65 1017.42 1018.06 1018.57 1018.97 1019.32 1019.65 1020.00 1020.37 1020.76 1021.15 1021.52 1021.85 1022.12 1022.34 1022.52 1022.68 1022.85 1023.05 1023.28 1023.54 1023.80 1024.05 1024.27 1024.42 1024.50 1024.54 1024.53 1024.51 1024.51 1024.54 1024.63 1024.75 1024.90 1025.04 1025.15 1025.19 1025.18 1025.09 1024.96 1024.82
1014.36 1015.25 1016.10 1016.85 1017.50 1018.04 1018.50 1018.91 1019.30 1019.71 1020.12 1020.55 1020.97 1021.36 1021.71 1022.01 1022.26 1022.47 1022.68 1022.90 1023.13 1023.40 1023.68 1023.97 1024.23 1024.44 1024.58 1024.66 1024.67 1024.64 1024.60 1024.58 1024.59 1024.66 1024.76 1024.89 1025.01 1025.12 1025.17 1025.17 1025.10 1024.99 1024.86
1013.71 1014.56 1015.38 1016.12 1016.79 1017.37 1017.90 1018.39 1018.87 1019.35 1019.83 1020.31 1020.78 1021.22 1021.61 1021.94 1022.24 1022.51 1022.76 1023.03 1023.31 1023.60 1023.91 1024.20 1024.46 1024.66 1024.78 1024.84 1024.83 1024.79 1024.73 1024.68 1024.67 1024.71 1024.78 1024.89 1025.00 1025.09 1025.14 1025.14 1025.09 1024.99 1024.87
1012.87 1013.69 1014.49 1015.24 1015.94 1016.59 1017.20 1017.79 1018.36 1018.94 1019.51 1020.07 1020.60 1021.09 1021.54 1021.94 1022.29 1022.62 1022.93 1023.24 1023.55 1023.87 1024.19 1024.48 1024.73 1024.91 1025.02 1025.06 1025.03 1024.97 1024.89 1024.83 1024.80 1024.81 1024.86 1024.94 1025.02 1025.09 1025.12 1025.10 1025.04 1024.94 1024.82
1011.86 1012.66 1013.46 1014.25 1015.01 1015.74 1016.45 1017.14 1017.83 1018.51 1019.18 1019.82 1020.43 1021.00 1021.51 1021.98 1022.39 1022.77 1023.14 1023.49 1023.84 1024.18 1024.50 1024.79 1025.02 1025.18 1025.28 1025.30 1025.26 1025.19 1025.11 1025.04 1024.99 1024.98 1025.01 1025.06 1025.10 1025.13 1025.12 1025.07 1024.97 1024.84 1024.69
1010.73 1011.53 1012.37 1013.21 1014.04 1014.87 1015.69 1016.50 1017.30 1018.10 1018.86 1019.60 1020.29 1020.93 1021.51 1022.03 1022.51 1022.95 1023.36 1023.76 1024.14 1024.49 1024.82 1025.09 1025.31 1025.46 1025.54 1025.56 1025.52 1025.45 1025.37 1025.30 1025.26 1025.23 1025.23 1025.24 1025.24 1025.22 1025.15 1025.04 1024.88 1024.69 1024.48
1009.58 1010.40 1011.28 1012.18 1013.11 1014.04 1014.97 1015.90 1016.81 1017.70 1018.57 1019.38 1020.14 1020.85 1021.50 1022.08 1022.62 1023.11 1023.57 1024.00 1024.40 1024.77 1025.10 1025.38 1025.59 1025.74 1025.81 1025.83 1025.81 1025.75 1025.69 1025.63 1025.58 1025.55 1025.53 1025.50 1025.44 1025.36 1025.22 1025.03 1024.79 1024.52 1024.23
1008.50 1009.34 1010.26 1011.23 1012.24 1013.27 1014.31 1015.34 1016.36 1017.34 1018.28 1019.16 1019.99 1020.75 1021.45 1022.09 1022.68 1023.22 1023.72 1024.19 1024.62 1025.01 1025.34 1025.63 1025.84 1026.00 1026.08 1026.12 1026.11 1026.08 1026.03 1025.99 1025.94 1025.90 1025.86 1025.79 1025.68 1025.53 1025.31 1025.03 1024.70 1024.33 1023.95
1007.55 1008.41 1009.36 1010.39 1011.47 1012.59 1013.71 1014.83 1015.93 1016.98 1017.98 1018.92 1019.80 1020.61 1021.35 1022.04 1022.67 1023.25 1023.80 1024.30 1024.77 1025.18 1025.54 1025.84 1026.07 1026.24 1026.35 1026.40 1026.42 1026.41 1026.38 1026.35 1026.31 1026.26 1026.19 1026.08 1025.92 1025.69 1025.40 1025.03 1024.61 1024.15 1023.68
1006.77 1007.62 1008.59 1009.66 1010.79 1011.97 1013.16 1014.34 1015.49 1016.60 1017.65 1018.63 1019.54 1020.39 1021.17 1021.89 1022.57 1023.20 1023.79 1024.34 1024.84 1025.29 1025.68 1026.01 1026.27 1026.46 1026.59 1026.67 1026.71 1026.72 1026.71 1026.68 1026.64 1026.57 1026.47 1026.32 1026.11 1025.82 1025.46 1025.02 1024.53 1023.99 1023.44
1006.15 1006.97 1007.93 1009.01 1010.16 1011.38 1012.61 1013.83 1015.03 1016.17 1017.25 1018.26 1019.21 1020.08 1020.90 1021.66 1022.38 1023.05 1023.69 1024.29 1024.83 1025.33 1025.76 1026.13 1026.42 1026.64 1026.80 1026.90 1026.96 1026.98 1026.97 1026.93 1026.88 1026.79 1026.66 1026.47 1026.21 1025.88 1025.46 1024.98 1024.43 1023.84 1023.24
1005.66 1006.42 1007.35 1008.41 1009.56 1010.79 1012.04 1013.29 1014.51 1015.68 1016.79 1017.82 1018.79 1019.69 1020.54 1021.33 1022.09 1022.81 1023.50 1024.14 1024.74 1025.29 1025.77 1026.18 1026.51 1026.76 1026.94 1027.06 1027.12 1027.13 1027.11 1027.06 1026.98 1026.86 1026.70 1026.47 1026.19 1025.82 1025.38 1024.87 1024.29 1023.68 1023.05
1005.25 1005.94 1006.81 1007.83 1008.97 1010.19 1011.45 1012.71 1013.94 1015.13 1016.25 1017.31 1018.29 1019.22 1020.09 1020.92 1021.72 1022.48 1023.21 1023.91 1024.56 1025.16 1025.69 1026.14 1026.50 1026.78 1026.98 1027.11 1027.16 1027.17 1027.12 1027.04 1026.93 1026.77 1026.58 1026.33 1026.02 1025.64 1025.20 1024.68 1024.11 1023.50 1022.87
1004.87 1005.48 1006.28 1007.26 1008.37 1009.57 1010.82 1012.08 1013.33 1014.53 1015.66 1016.74 1017.74 1018.69 1019.59 1020.45 1021.27 1022.08 1022.85 1023.59 1024.29 1024.93 1025.50 1025.99 1026.39 1026.69 1026.90 1027.02 1027.07 1027.05 1026.98 1026.86 1026.71 1026.53 1026.30 1026.04 1025.72 1025.35 1024.92 1024.42 1023.87 1023.29 1022.68
1004.48 1005.02 1005.77 1006.69 1007.77 1008.94 1010.18 1011.44 1012.69 1013.90 1015.05 1016.14 1017.16 1018.13 1019.05 1019.93 1020.78 1021.61 1022.42 1023.19 1023.92 1024.60 1025.21 1025.73 1026.15 1026.46 1026.68 1026.80 1026.83 1026.79 1026.69 1026.54 1026.36 1026.14 1025.90 1025.63 1025.32 1024.97 1024.56 1024.11 1023.60 1023.05 1022.48
Thickness
5737 5736 5734 5732 5730 5727 5725 5722 5719 5717 5715 5712 5710 5707 5705 5705 5703 5702 5701 5700 5700 5699 5698 5698 5696 5695 5694 5693 5692 5690 5688 5687 5688 5687 5685 5685 5685 5685 5683 5683 5683 5682 5682
5736 5733 5732 5729 5728 5725 5723 5720 5718 5716 5713 5710 5708 5706 5704 5703 5701 5699 5698 5698 5697 5697 5696 5695 5693 5692 5690 5689 5688 5686 5686 5685 5685 5685 5683 5680 5678 5678 5679 5679 5678 5679 5678
5735 5733 5730 5728 5726 5723 5721 5718 5716 5715 5711 5709 5706 5704 5702 5700 5698 5696 5695 5694 5694 5694 5693 5693 5692 5690 5689 5687 5685 5684 5682 5682 5683 5684 5682 5678 5674 5674 5674 5675 5674 5674 5673
5734 5732 5729 5727 5725 5722 5721 5718 5716 5714 5711 5708 5705 5702 5698 5696 5696 5696 5694 5693 5692 5691 5691 5690 5689 5688 5687 5685 5684 5683 5682 5680 5679 5680 5679 5680 5678 5673 5670 5670 5671 5670 5670
5733 5730 5728 5726 5724 5721 5718 5717 5715 5712 5709 5707 5703 5701 5699 5697 5696 5694 5692 5692 5690 5689 5688 5688 5687 5686 5685 5683 5681 5680 5679 5679 5678 5678 5677 5676 5675 5676 5672 5667 5667 5667 5667
5732 5729 5727 5724 5721 5719 5715 5713 5711 5709 5707 5705 5703 5700 5697 5694 5692 5691 5690 5689 5688 5687 5686 5685 5684 5683 5682 5681 5679 5678 5676 5676 5675 5676 5676 5675 5673 5672 5671 5668 5665 5664 5664
5730 5727 5724 5720 5717 5714 5712 5710 5708 5706 5705 5703 5702 5700 5697 5695 5692 5690 5688 5687 5686 5685 5684 5683 5682 5681 5679 5678 5677 5676 5675 5674 5673 5673 5673 5673 5672 5672 5671 5668 5665 5662 5661
5726 5723 5721 5718 5715 5712 5709 5708 5706 5704 5703 5701 5700 5699 5697 5693 5692 5690 5688 5687 5686 5684 5683 5681 5680 5678 5677 5675 5674 5674 5673 5673 5672 5671 5669 5669 5669 5669 5668 5666 5664 5660 5659
5721 5719 5718 5715 5713 5710 5708 5706 5704 5702 5700 5699 5698 5697 5695 5692 5690 5688 5687 5686 5685 5683 5681 5680 5678 5676 5675 5673 5672 5671 5671 5670 5670 5669 5668 5667 5666 5665 5665 5665 5663 5660 5657
5717 5715 5714 5712 5710 5708 5707 5705 5703 5700 5698 5697 5695 5693 5691 5689 5688 5687 5685 5684 5683 5681 5679 5678 5676 5675 5673 5672 5670 5669 5668 5668 5667 5665 5665 5664 5664 5664 5662 5662 5661 5660 5658
5712 5711 5709 5708 5706 5705 5703 5701 5700 5698 5696 5694 5692 5689 5688 5686 5685 5683 5682 5681 5680 5679 5678 5676 5675 5674 5672 5671 5668 5667 5666 5666 5666 5666 5665 5663 5662 5661 5660 5659 5658 5656 5655
5708 5707 5705 5703 5702 5700 5699 5698 5696 5694 5692 5691 5689 5687 5685 5683 5682 5681 5680 5679 5678 5677 5676 5675 5673 5672 5670 5669 5668 5665 5664 5664 5663 5664 5663 5662 5660 5658 5658 5656 5655 5654 5653
5702 5701 5699 5698 5697 5696 5695 5694 5692 5690 5688 5687 5685 5683 5682 5681 5679 5679 5677 5677 5676 5674 5674 5673 5671 5669 5668 5667 5665 5664 5664 5663 5662 5661 5661 5660 5659 5657 5655 5653 5653 5651 5649
5696 5695 5693 5693 5692 5692 5691 5690 5688 5686 5684 5682 5680 5679 5678 5677 5676 5675 5674 5673 5672 5672 5671 5670 5668 5667 5666 5664 5663 5662 5661 5660 5660 5659 5658 5658 5656 5655 5653 5651 5650 5648 5645
5690 5690 5689 5689 5688 5687 5687 5686 5684 5682 5681 5678 5676 5675 5674 5673 5672 5671 5669 5669 5668 5667 5667 5666 5665 5664 5662 5661 5659 5659 5657 5657 5657 5656 5655 5654 5652 5650 5649 5648 5647 5644 5642
5684 5685 5685 5684 5683 5683 5682 5681 5679 5677 5677 5675 5672 5670 5669 5667 5666 5666 5665 5664 5663 5663 5662 5661 5661 5659 5658 5654 5652 5653 5654 5653 5653 5652 5651 5650 5647 5644 5642 5641 5639 5638 5638
5678 5679 5680 5680 5679 5679 5679 5676 5674 5673 5671 5670 5668 5665 5664 5662 5661 5660 5659 5658 5658 5658 5657 5656 5656 5656 5653 5650 5648 5647 5649 5649 5650 5649 5647 5646 5644 5641 5641 5637 5634 5632 5630
5673 5674 5676 5675 5675 5675 5673 5671 5668 5667 5666 5665 5662 5660 5659 5657 5656 5655 5654 5653 5654 5653 5652 5653 5652 5650 5648 5645 5644 5643 5645 5645 5645 5644 5644 5642 5640 5637 5636 5635 5633 5631 5628
5669 5670 5671 5671 5670 5669 5668 5665 5663 5661 5660 5658 5657 5656 5655 5653 5651 5650 5649 5648 5648 5648 5648 5648 5647 5646 5645 5641 5639 5638 5640 5641 5640 5640 5639 5637 5636 5631 5629 5630 5629 5627 5624
5662 5663 5665 5665 5664 5663 5662 5659 5657 5655 5654 5652 5652 5651 5650 5648 5646 5645 5644 5643 5642 5642 5642 5642 5643 5642 5641 5637 5634 5632 5636 5636 5636 5634 5633 5630 5629 5626 5623 5625 5624 5622 5620
5655 5657 5658 5658 5658 5657 5655 5653 5652 5650 5649 5647 5646 5645 5644 5642 5641 5640 5639 5638 5637 5636 5637 5637 5637 5636 5635 5632 5629 5628 5630 5630 5631 5630 5629 5627 5622 5619 5617 5617 5618 5616 5614
5648 5650 5652 5652 5651 5650 5648 5647 5645 5644 5642 5640 5639 5638 5637 5636 5636 5634 5632 5632 5630 5630 5630 5630 5631 5630 5629 5627 5625 5623 5623 5623 5624 5624 5623 5621 5615 5612 5610 5609 5609 5607 5605
5641 5643 5644 5644 5644 5643 5642 5641 5640 5638 5635 5633 5632 5631 5630 5628 5628 5627 5626 5625 5624 5624 5624 5624 5625 5624 5624 5621 5618 5616 5616 5615 5615 5617 5614 5611 5607 5605 5604 5602 5600 5598 5599
5634 5635 5636 5637 5637 5637 5636 5635 5633 5631 5629 5627 5626 5624 5623 5622 5622 5621 5621 5619 5619 5618 5618 5618 5618 5619 5617 5616 5613 5612 5610 5608 5608 5608 5606 5602 5600 5598 5597 5595 5593 5593 5592
5626 5627 5628 5629 5629 5629 5629 5628 5626 5624 5622 5621 5620 5618 5617 5616 5615 5614 5614 5614 5614 5613 5612 5613 5613 5612 5611 5610 5607 5606 5606 5604 5603 5600 5599 5598 5595 5594 5592 5591 5589 5587 5585
5618 5619 5619 5620 5622 5622 5621 5621 5619 5618 5617 5615 5614 5612 5610 5609 5608 5607 5606 5604 5604 5603 5603 5603 5603 5605 5603 5601 5599 5598 5596 5595 5593 5592 5593 5592 5591 5589 5588 5586 5583 5581 5579